Location: Chervonnoye
(48.6000°N, 34.4000°E)
Time: 16:31:54
(UTC+00:00)

Cosmos 1980 - Pass Details

Date: 23 November 2020
Orbit: 841 x 846 km, 71.0° (Epoch: 27 January)

Event Time Altitude Azimuth Distance (km) Brightness Sun altitude
Rises 14:48:39 0° 183° (S) 3,392 7.2 -8.9°
Reaches altitude 10° 14:51:12 10° 176° (S) 2,461 6.4 -9.3°
Maximum altitude 14:56:28 41° 108° (ESE) 1,205 4.2 -10.1°
Drops below altitude 10° 15:01:45 10° 40° (NE) 2,477 5.6 -10.9°
Enters shadow 15:02:00 - 39° (NE) 2,563 5.7 -11.0°
